Location: Laterina
(43.5167°N, 11.7167°E)
Time: 23:10:00
(UTC+00:00)

Cosmos 1125 Rocket - Pass Details

Date: 27 June 2021
Orbit: 757 x 780 km, 74.0° (Epoch: 29 July)

Event Time Altitude Azimuth Distance (km) Brightness Sun altitude
Rises 23:34:09 0° 345° (NNW) 3,251 8.0 -23.1°
Reaches altitude 10° 23:36:40 10° 353° (N) 2,324 7.1 -23.0°
Maximum altitude 23:41:38 40° 63° (ENE) 1,132 4.6 -23.0°
Enters shadow 23:44:25 23° 118° (ESE) 1,610 4.9 -22.9°
